This is the latest recevied weather packets stored in our database for station/object EW7404. If no packets are shown the sender has not sent any weather packets the latest 10 day(s).
| Time | Temp. | Humidity | Pressure | Rain* | Wind** | Luminosity | Snow |
|---|---|---|---|---|---|---|---|
| 1777595715 | -8.89° C | 99% | 947.3 hPa | 6.1 mm | - | - | - |
| 1777593915 | -8.89° C | 99% | 947.5 hPa | 0 mm | - | - | - |
| 1777592116 | -8.89° C | 99% | 947.6 hPa | 0 mm | - | - | - |
| 1777590916 | -8.89° C | 99% | 947.7 hPa | 0 mm | - | - | - |
| 1777590335 | -8.89° C | 99% | 947.7 hPa | 0 mm | - | - | - |
| 1777585515 | -8.33° C | 100% | 948.1 hPa | 65.28 mm | - | - | - |
| 1777584915 | -8.33° C | 100% | 948.1 hPa | 6.1 mm | - | - | - |
| 1777582515 | -8.33° C | 100% | 948.2 hPa | 6.1 mm | - | - | - |
| 1777577715 | -7.78° C | 100% | 948.3 hPa | 0 mm | - | - | - |
| 1777577135 | -7.78° C | 100% | 948.5 hPa | 0 mm | - | - | - |
| 1777576535 | -7.78° C | 100% | 948.5 hPa | 0 mm | - | - | - |
| 1777574715 | -7.22° C | 100% | 948.5 hPa | 0 mm | - | - | - |
| 1777572915 | -6.67° C | 100% | 948.4 hPa | 0 mm | - | - | - |
| 1777565716 | -7.22° C | 100% | 947.7 hPa | 0 mm | - | - | - |
| 1777565115 | -6.67° C | 100% | 947.7 hPa | 0 mm | - | - | - |
| 1777561515 | -6.67° C | 100% | 947.7 hPa | 0 mm | - | - | - |
| 1777559415 | -6.11° C | 100% | 947.6 hPa | 0 mm | - | - | - |
| 1777558815 | -6.11° C | 100% | 947.6 hPa | 0 mm | - | - | - |
| 1777549816 | -3.89° C | 100% | 948 hPa | 0 mm | - | - | - |
| 1777548616 | -3.33° C | 100% | 948.1 hPa | 0 mm | - | - | - |
| 1777548015 | -2.22° C | 100% | 947.9 hPa | 0 mm | - | - | - |
| 1777545615 | -1.67° C | 100% | 948 hPa | 0 mm | - | - | - |
| 1777545015 | -2.22° C | 100% | 948 hPa | 0 mm | - | - | - |
| 1777541715 | -1.11° C | 100% | 948.4 hPa | 0.25 mm | - | - | - |
| 1777535415 | -0.56° C | 100% | 948.7 hPa | 5.08 mm | - | - | - |
* Rain latest hour (hover to see other rain measurements)
** Current wind speed in m/s (hover to see current wind gust speed)